Lapse_Rate
7.1 7.2 7.2 7.2 7.2 7.1 7.2 7.0 6.9 6.7 6.5 6.4 6.3 6.2 6.1 6.1 6.2 6.3 6.5 6.6 6.8 6.6 6.3 6.5 6.6 6.5 6.5 6.3 5.9 5.7 5.8 5.9 6.2 6.4 6.6 6.9 7.1 7.1 7.0 6.9 6.8 6.6 6.7 6.8 6.7 6.5 6.6 6.4 6.2
7.1 7.1 7.1 7.1 7.1 7.1 7.0 6.8 6.5 6.4 6.3 6.3 6.2 6.2 6.0 6.1 6.2 6.3 6.7 6.7 6.7 6.5 6.4 6.7 6.5 6.3 6.2 6.1 6.1 5.7 5.5 5.6 5.7 6.0 6.3 6.5 7.0 7.2 7.1 6.9 6.9 6.9 6.7 6.6 6.7 6.7 6.6 6.4 6.3
7.0 7.1 7.1 7.1 7.2 7.1 7.1 6.9 6.6 6.3 6.4 6.4 6.2 6.1 6.1 6.1 6.0 6.1 6.4 6.5 6.5 6.4 6.5 6.5 6.4 6.2 5.9 5.9 5.5 5.6 5.5 5.5 5.6 5.8 5.8 6.1 6.4 6.4 6.6 6.8 6.8 6.7 6.6 6.7 6.5 6.5 6.5 6.5 6.4
6.8 7.0 7.1 7.1 7.2 7.1 7.0 6.9 6.8 6.5 6.5 6.5 6.4 6.3 6.2 6.1 6.0 6.1 6.4 6.4 6.5 6.4 6.6 6.5 6.2 6.1 5.9 5.8 5.4 5.4 5.4 5.4 5.5 5.6 5.8 5.8 5.9 6.1 6.4 6.5 6.3 6.6 6.4 6.2 6.0 6.0 6.4 6.5 6.4
6.9 7.0 7.0 7.1 7.2 7.2 7.2 7.1 6.9 6.8 6.7 6.6 6.3 6.4 6.4 6.2 6.1 6.2 6.4 6.6 6.5 6.5 6.5 6.5 6.3 6.1 5.9 5.6 5.3 5.3 5.3 5.3 5.3 5.5 5.6 5.7 5.8 5.8 5.8 5.8 5.9 5.7 5.8 6.2 6.2 6.4 6.3 6.4 6.4
7.0 7.0 7.1 7.2 7.3 7.2 7.2 7.2 7.1 6.9 6.6 6.6 6.5 6.6 6.4 6.3 6.4 6.5 6.6 6.8 6.5 6.5 6.5 6.4 6.3 6.1 5.9 5.7 5.5 5.3 5.4 5.4 5.3 5.4 5.5 5.4 5.6 5.6 5.7 5.6 5.4 5.3 5.4 5.5 5.5 5.6 6.1 6.4 6.4
7.1 7.2 7.2 7.3 7.3 7.3 7.3 7.2 7.1 6.8 6.5 6.5 6.5 6.6 6.5 6.5 6.5 6.5 6.5 6.6 6.5 6.5 6.4 6.4 6.2 6.0 6.0 5.8 5.7 5.5 5.5 5.5 5.5 5.5 5.5 5.4 5.4 5.5 5.6 5.6 5.3 5.1 5.3 5.4 5.3 5.5 5.7 5.6 5.9
7.2 7.1 7.3 7.4 7.4 7.3 7.4 7.3 7.1 6.9 6.8 6.5 6.4 6.5 6.5 6.3 6.5 6.5 6.5 6.4 6.5 6.4 6.2 6.2 6.1 5.9 6.0 5.9 5.9 5.9 5.7 5.6 5.5 5.4 5.5 5.5 5.4 5.3 5.4 5.2 5.3 5.2 5.0 5.1 4.9 4.9 5.2 5.3 5.3
7.3 7.1 7.3 7.3 7.4 7.4 7.3 7.2 7.0 6.9 6.8 6.7 6.5 6.4 6.4 6.4 6.5 6.5 6.5 6.2 6.3 6.2 6.1 6.1 6.1 5.9 5.8 5.9 5.9 5.9 5.9 5.8 5.7 5.6 5.4 5.3 5.3 5.2 5.2 5.1 5.1 5.0 4.9 5.0 4.7 4.7 5.1 5.1 5.3
7.3 7.3 7.2 7.3 7.3 7.2 7.1 6.9 6.8 6.8 6.8 6.7 6.6 6.5 6.4 6.4 6.4 6.4 6.4 6.2 6.2 6.2 6.2 6.1 6.0 5.9 5.9 5.9 5.9 5.9 5.9 5.8 5.8 5.8 5.7 5.5 5.3 5.2 5.2 4.9 4.8 4.8 4.7 4.6 4.6 4.7 4.8 5.0 4.9
7.5 7.3 7.2 7.2 7.1 7.1 7.0 6.8 6.8 6.8 6.8 6.6 6.5 6.5 6.6 6.7 6.6 6.5 6.4 6.3 6.2 6.2 6.2 6.2 6.0 5.9 5.9 5.9 5.9 5.9 5.8 5.8 5.8 5.8 5.9 5.7 5.7 5.6 5.5 5.3 5.2 4.9 4.7 4.8 4.7 4.6 4.6 4.7 4.7
7.3 7.2 7.1 7.1 7.1 7.0 6.9 6.8 6.8 6.7 6.5 6.6 6.6 6.6 6.6 6.6 6.6 6.5 6.4 6.4 6.2 6.1 6.0 6.1 6.0 6.0 6.1 6.1 6.0 5.8 5.8 5.8 5.8 5.8 5.9 5.9 5.9 5.8 5.9 5.7 5.6 5.5 5.3 5.0 5.0 4.9 4.7 4.7 4.6
7.2 7.2 7.1 7.0 6.9 6.8 6.8 6.7 6.7 6.8 6.6 6.7 6.7 6.6 6.5 6.5 6.5 6.5 6.5 6.3 6.1 6.1 6.1 6.1 6.1 6.1 6.1 6.0 5.9 5.8 5.8 5.8 5.9 5.9 6.0 6.0 6.0 5.9 6.0 6.0 5.9 5.8 5.6 5.4 5.3 5.1 5.1 4.9 4.6
7.2 7.1 7.1 7.0 6.9 6.8 6.8 6.8 6.8 6.8 6.8 6.8 6.8 6.7 6.7 6.6 6.6 6.6 6.4 6.3 6.2 6.3 6.2 6.1 6.2 6.2 6.2 6.2 6.1 6.0 5.9 5.9 5.9 5.9 5.9 5.9 6.0 6.0 6.1 6.0 5.9 5.8 5.8 5.7 5.4 5.4 5.4 5.4 5.1
7.1 7.0 6.9 6.9 6.9 6.9 6.9 7.0 7.1 7.1 7.0 7.1 7.0 7.0 6.9 6.8 6.9 6.8 6.9 6.7 6.6 6.6 6.6 6.4 6.5 6.4 6.3 6.3 6.1 6.2 6.0 6.0 6.0 6.0 6.0 5.9 5.9 6.0 6.1 6.0 5.9 5.9 5.8 5.9 5.8 5.7 5.5 5.3 5.2
7.0 6.9 6.9 7.1 7.0 7.0 6.9 7.4 7.2 7.3 7.3 7.3 7.2 7.3 7.3 7.3 7.2 7.1 7.0 6.9 6.9 6.7 6.6 6.8 6.7 6.6 6.5 6.4 6.3 6.3 6.2 6.2 6.1 6.1 6.1 6.1 6.0 6.1 6.1 6.0 5.9 5.9 5.8 5.7 5.6 5.6 5.7 5.6 5.4
6.8 6.9 7.1 7.1 7.2 7.1 7.1 7.6 7.3 7.3 7.4 7.5 7.5 7.6 7.6 7.6 7.6 7.4 7.5 7.4 7.3 7.2 7.1 7.1 7.0 7.0 6.9 6.8 6.8 6.7 6.5 6.4 6.3 6.3 6.3 6.2 6.2 6.2 6.1 5.9 5.9 5.8 5.7 5.7 5.7 5.8 5.8 5.7 5.7
6.9 6.9 7.1 7.0 7.0 7.1 7.2 7.8 7.6 7.5 7.6 7.9 8.0 8.0 8.0 8.0 7.7 7.4 7.6 7.6 7.6 7.5 7.5 7.5 7.4 7.5 7.3 7.1 7.0 6.8 6.7 6.5 6.3 6.2 6.2 6.1 6.1 6.1 5.9 5.9 5.8 5.8 5.8 5.7 5.7 5.7 5.6 5.6 5.6
6.7 6.7 6.7 7.0 6.8 6.8 7.1 7.4 8.1 7.7 7.7 8.0 8.2 8.2 8.1 8.1 7.6 7.7 7.7 7.7 7.7 7.7 7.7 7.7 7.6 7.7 7.6 7.3 7.1 6.9 6.7 6.5 6.3 6.3 6.2 6.2 6.1 6.0 5.8 5.8 5.8 5.6 5.5 5.5 5.6 5.6 5.6 5.6 5.6
6.5 6.4 6.6 6.6 6.6 6.5 6.9 7.5 7.8 7.8 7.9 7.7 8.0 8.1 8.1 8.1 8.0 7.9 7.9 7.9 7.8 7.8 7.9 8.0 7.8 7.7 7.3 7.1 6.9 6.7 6.5 6.4 6.4 6.2 6.1 6.1 5.9 5.7 5.6 5.6 5.4 5.4 5.4 5.5 5.5 5.5 5.6 5.6 5.6
6.3 6.2 6.4 6.4 6.4 6.3 6.3 7.0 7.6 7.7 7.9 8.0 8.0 7.9 8.0 8.1 8.2 8.2 8.2 8.0 7.8 7.8 7.6 7.6 7.4 7.3 7.1 7.0 6.8 6.6 6.5 6.4 6.2 6.2 6.1 6.0 5.8 5.7 5.6 5.5 5.4 5.3 5.3 5.3 5.4 5.4 5.5 5.6 5.6
6.0 5.9 5.9 5.9 5.9 5.8 6.0 5.7 7.4 7.6 7.6 7.9 8.2 8.1 8.1 8.1 8.2 8.2 8.3 8.2 8.0 7.5 7.5 7.5 7.3 7.0 6.9 6.8 6.6 6.5 6.4 6.2 6.2 6.1 5.9 5.8 5.6 5.6 5.4 5.3 5.2 5.2 5.2 5.3 5.3 5.4 5.4 5.5 5.5
5.9 5.9 5.8 5.7 5.5 5.5 5.1 5.5 6.9 7.0 7.6 8.2 8.3 8.5 8.6 8.4 8.4 8.2 8.1 8.1 7.9 7.7 7.5 7.2 7.0 7.0 7.0 6.8 6.6 6.5 6.3 6.2 6.0 5.9 5.7 5.5 5.4 5.3 5.2 5.3 5.3 5.2 5.2 5.2 5.3 5.3 5.5 5.6 5.6
5.9 5.8 5.8 5.5 5.4 4.1 5.7 5.6 6.1 7.3 7.7 7.7 7.7 7.9 8.2 8.3 8.3 8.3 8.2 8.2 8.1 8.0 7.7 7.5 7.3 7.2 7.0 6.9 6.6 6.5 6.3 6.2 6.0 5.8 5.6 5.5 5.4 5.3 5.2 5.2 5.2 5.2 5.2 5.1 5.1 5.2 5.5 5.6 5.7
5.8 5.7 5.3 4.0 3.2 4.2 5.6 4.7 6.4 7.1 7.4 7.3 7.4 7.5 7.7 7.9 7.8 7.7 7.6 7.7 7.7 7.7 7.5 7.4 7.4 7.1 7.0 6.8 6.8 6.6 6.3 6.2 6.0 5.7 5.7 5.5 5.3 5.2 5.2 5.3 5.2 5.2 5.2 5.0 5.1 5.2 5.5 5.6 5.6
6.0 5.7 6.0 4.0 3.7 4.1 4.6 4.5 6.5 6.8 6.8 7.1 7.2 7.5 7.6 7.4 7.3 7.3 7.3 7.3 7.3 7.5 7.5 7.4 7.3 7.0 7.1 7.0 6.8 6.6 6.3 6.1 5.8 5.5 5.3 5.2 5.1 5.0 5.1 5.1 5.1 5.0 5.1 5.1 5.1 5.2 5.3 5.5 5.7
5.5 5.4 5.8 5.5 4.8 3.2 5.3 5.7 5.7 6.3 6.8 7.0 7.2 7.5 7.4 7.0 7.0 7.3 7.5 7.4 7.3 7.4 7.5 7.3 7.2 7.0 7.1 6.9 6.5 6.5 6.1 5.8 5.6 5.3 5.1 4.9 4.9 5.0 5.1 5.2 5.3 5.3 5.3 5.3 5.3 5.2 5.3 5.4 5.8
5.7 5.8 5.5 5.5 4.1 3.6 4.0 4.9 6.1 6.6 6.5 6.7 7.4 7.5 7.5 7.3 7.3 7.3 7.4 7.3 7.3 7.4 7.4 7.4 7.3 7.2 6.9 6.7 6.4 6.1 5.9 5.7 5.5 5.2 4.9 4.8 4.9 5.0 5.1 5.3 5.4 5.4 5.4 5.4 5.4 5.3 5.0 5.5 5.9
6.2 5.4 5.5 6.0 5.7 3.7 3.9 5.6 6.8 6.5 6.5 6.7 7.3 7.5 7.4 7.2 7.1 7.3 7.2 7.2 7.2 7.3 7.4 7.3 7.2 7.2 7.0 6.6 6.2 6.0 5.7 5.5 5.3 5.3 5.1 5.1 5.1 5.2 5.3 5.4 5.4 5.4 5.4 5.4 5.5 5.5 5.4 5.6 6.1
6.0 5.8 5.9 5.9 5.5 5.6 4.5 4.3 6.0 6.2 6.2 6.5 7.0 7.1 7.2 7.4 7.2 6.8 6.8 7.0 7.1 7.1 7.2 7.2 7.1 6.9 6.7 6.3 6.1 5.9 5.8 5.6 5.5 5.4 5.2 5.2 5.2 5.2 5.5 5.5 5.6 5.6 5.5 5.6 5.7 5.6 5.7 6.0 6.4
Wind_Speed
7 4 1 3 3 4 1 3 1 1 0 0 1 2 3 3 2 1 0 2 6 6 4 5 6 7 8 9 8 7 6 7 7 6 6 9 10 10 10 10 12 13 12 11 12 11 12 12 12
4 2 3 2 3 2 2 1 3 2 1 7 4 3 2 2 1 1 3 4 7 7 5 5 7 7 7 7 8 7 7 6 6 6 7 8 9 9 9 9 10 10 12 12 11 11 11 11 12
1 3 3 4 3 3 3 4 4 3 4 3 3 2 4 5 3 5 2 7 7 6 4 6 6 7 7 7 6 6 7 6 5 5 6 7 7 8 8 8 9 9 9 10 11 11 10 10 11
2 3 3 3 2 2 2 4 5 4 1 4 2 4 1 2 3 3 7 8 6 5 5 6 7 8 7 8 6 6 7 5 4 4 5 5 4 4 6 8 7 7 7 8 8 9 9 8 8
3 2 3 3 2 2 3 2 4 5 2 3 4 4 3 3 4 5 8 7 6 5 5 6 7 7 7 7 6 5 5 5 5 4 4 4 3 3 7 6 6 6 6 7 7 7 7 8 8
3 2 3 2 3 2 3 3 5 3 2 3 3 6 4 1 6 7 7 7 6 5 5 7 9 9 8 7 7 8 6 4 5 5 4 4 4 4 7 6 5 5 5 5 5 5 6 7 8
4 3 2 3 3 2 5 6 4 5 3 4 4 5 1 6 8 7 7 5 6 5 6 6 6 8 8 8 8 9 9 10 9 8 7 6 4 4 3 5 5 6 5 3 4 4 5 5 7
4 4 2 3 4 4 5 6 2 5 5 2 2 4 3 4 10 6 6 5 5 4 4 5 5 6 6 6 8 10 11 11 11 11 9 9 9 9 7 5 5 6 6 6 7 7 5 5 5
3 4 2 4 6 3 2 3 1 0 4 3 4 3 1 4 11 7 5 4 4 3 4 5 6 5 6 6 7 8 9 10 10 9 9 8 7 7 8 8 8 8 8 9 9 10 10 8 4
4 3 5 4 4 3 3 1 4 1 1 3 2 3 1 9 12 11 10 9 7 7 6 4 6 6 6 5 5 5 5 6 6 7 7 6 6 7 6 7 8 7 7 7 8 9 8 5 2
2 4 3 2 3 4 5 1 1 4 4 7 7 5 7 10 11 11 11 9 10 8 5 6 5 6 6 5 5 4 4 4 5 5 5 5 4 4 5 4 4 4 6 5 7 7 7 4 2
2 1 2 2 0 1 3 2 2 5 4 1 6 3 7 12 12 12 11 10 8 7 7 6 6 6 6 5 4 5 4 4 3 4 4 4 3 2 3 3 3 3 4 4 4 4 4 4 2
1 2 2 2 2 1 1 2 4 7 7 6 2 4 9 9 9 5 6 5 5 7 7 6 6 6 6 6 5 4 5 4 3 4 3 2 2 1 2 1 1 1 2 3 4 4 4 4 3
3 2 2 2 1 2 1 1 2 2 3 5 6 7 9 10 11 5 7 9 9 9 9 9 8 7 6 5 6 5 5 5 4 4 3 3 2 1 1 2 3 3 4 4 4 3 1 1 1
3 2 1 1 1 1 1 3 7 5 3 5 7 6 7 11 8 13 11 11 12 10 9 9 9 9 6 6 7 6 6 6 5 4 4 3 3 2 2 2 2 3 4 4 4 3 2 2 2
2 4 1 2 3 2 2 7 5 3 6 7 8 8 8 9 13 12 11 12 9 9 11 9 8 8 7 6 7 7 7 6 5 5 4 4 4 3 2 1 1 2 2 2 3 2 2 2 1
5 3 4 4 3 2 4 6 5 3 5 8 8 10 10 9 9 11 11 11 10 12 11 11 10 9 8 8 7 7 7 6 5 4 3 3 5 3 2 1 1 2 2 2 2 1 1 1 2
5 4 3 4 2 0 3 13 10 7 7 12 10 10 11 11 15 9 9 8 9 10 11 11 10 11 9 6 5 4 3 3 3 3 3 2 3 3 2 1 0 1 1 1 1 1 2 2 2
4 4 4 3 0 1 6 9 18 11 8 14 13 14 15 14 7 7 7 7 8 9 11 13 12 12 9 4 3 2 2 2 1 3 4 3 2 2 2 2 1 1 2 2 2 1 1 0 1
2 1 4 3 1 0 6 17 15 13 7 8 13 12 14 10 8 8 9 8 10 11 13 13 13 12 9 5 3 2 3 2 1 3 2 1 1 1 1 1 0 0 1 1 0 0 0 1 1
1 3 3 3 2 1 5 10 5 4 3 5 7 7 8 13 13 10 8 8 6 9 11 12 12 12 10 8 6 3 3 2 2 2 2 4 3 2 1 1 1 1 1 1 1 1 3 2 1
2 2 2 3 3 3 3 6 5 5 9 7 13 10 13 10 7 8 8 5 6 7 6 9 10 11 9 10 7 6 4 4 3 2 2 2 2 2 1 1 1 2 2 2 2 2 2 2 3
4 3 4 3 4 4 3 2 9 2 8 13 11 7 8 7 7 8 8 8 5 5 7 7 8 8 8 10 9 7 4 3 2 2 3 2 2 2 3 3 3 2 2 2 2 2 3 3 2
9 5 5 4 3 1 7 7 7 5 7 5 3 5 4 3 4 5 7 6 6 6 8 9 12 11 11 11 11 10 8 6 3 3 3 2 2 2 5 5 4 4 3 3 3 3 3 3 3
1 5 2 3 1 6 2 3 10 8 9 7 10 4 4 3 6 7 6 6 5 6 7 7 10 11 11 12 11 10 9 7 7 5 4 3 3 3 6 6 5 4 5 4 3 3 3 4 3
5 5 5 7 4 3 2 7 7 9 12 11 8 4 5 7 7 8 8 8 7 7 6 8 10 10 10 11 10 8 8 5 4 5 4 4 4 4 5 7 7 6 5 5 4 3 3 3 3
5 4 1 3 2 1 5 6 8 9 12 9 6 4 7 6 6 9 8 8 8 7 9 10 10 10 10 10 8 8 7 7 6 7 5 4 4 4 6 7 5 6 5 5 4 3 4 3 3
3 4 3 2 3 6 4 4 5 5 9 8 8 7 7 5 5 6 7 7 6 6 7 9 10 11 9 8 8 7 7 7 6 5 7 7 5 5 5 6 5 5 5 6 5 4 4 5 3
3 3 1 2 4 4 5 5 6 4 4 5 6 7 7 7 6 6 5 6 6 4 5 7 8 9 8 7 6 6 6 6 6 6 6 7 5 6 7 6 6 6 5 5 5 5 4 5 5
3 6 6 4 5 3 1 12 1 4 5 5 7 8 6 4 6 6 5 6 5 6 5 7 6 5 5 6 5 5 4 5 5 5 6 6 6 6 6 6 6 6 5 5 6 5 5 6 6
Wind_Direction
348 350 51 37 68 63 168 221 176 203 183 326 80 147 125 62 137 199 21 304 125 118 115 108 112 116 114 117 115 112 113 109 100 98 110 133 131 122 115 118 114 106 93 78 67 63 65 61 48
342 296 45 72 91 104 247 256 202 211 146 128 100 91 69 94 234 188 144 130 133 124 120 121 129 128 124 119 119 117 112 108 105 105 105 111 120 123 122 109 95 92 95 90 81 70 66 62 53
115 32 74 92 107 184 191 198 178 166 165 192 115 46 149 156 223 181 136 145 125 122 128 121 131 120 114 113 111 107 101 100 98 94 96 110 119 126 112 94 92 90 82 79 79 76 69 66 61
54 16 50 79 173 229 212 194 178 136 204 229 135 113 109 244 185 180 147 148 137 119 97 106 111 105 105 102 96 97 101 101 99 100 102 107 113 125 120 102 103 101 89 82 82 88 86 79 72
36 64 65 81 279 263 252 209 180 160 186 181 171 178 186 245 254 156 159 153 142 118 105 97 89 95 98 89 80 71 81 91 82 87 94 121 108 132 139 118 113 99 88 81 66 58 66 67 65
45 91 76 191 233 251 260 184 156 196 187 161 149 155 206 244 183 174 164 148 141 135 105 86 83 79 88 85 73 61 61 64 72 70 75 92 106 101 130 126 116 100 89 79 88 96 76 66 68
113 90 191 172 211 255 217 145 178 184 175 230 146 156 236 216 201 166 168 145 139 140 121 101 91 85 77 82 78 69 63 66 68 70 66 67 83 95 120 135 144 139 121 89 67 44 47 53 55
107 90 103 221 198 248 188 172 156 160 212 105 156 207 226 205 174 156 155 155 147 147 134 129 112 99 93 88 79 75 71 68 67 64 63 67 64 60 61 62 47 60 51 37 26 7 1 19 51
134 67 189 221 161 268 155 163 186 201 133 221 196 183 286 137 142 137 142 178 179 181 171 153 139 127 115 98 90 83 75 73 75 71 63 65 65 59 55 51 60 57 49 40 28 14 2 349 5
91 121 218 195 198 203 173 212 179 161 192 250 249 239 112 156 162 165 177 191 194 195 201 178 162 152 125 122 113 97 89 79 77 69 69 71 71 65 65 54 52 47 37 28 22 18 9 2 334
158 182 182 220 217 172 156 195 181 165 235 227 212 206 170 176 179 182 193 192 203 201 193 186 179 156 145 140 126 113 90 84 78 76 84 81 74 64 56 48 39 31 29 29 25 19 17 347 307
137 94 152 155 327 149 161 128 256 199 230 40 234 238 172 184 194 195 201 205 197 200 200 187 186 162 158 150 144 134 116 103 96 82 75 96 88 61 60 46 28 23 21 21 22 26 13 3 1
98 170 100 132 137 76 58 248 250 256 253 261 141 165 192 199 207 213 217 226 223 213 209 206 188 183 170 155 150 144 127 120 112 96 76 88 95 99 114 107 71 14 360 5 3 20 8 348 331
160 165 171 170 141 97 198 262 16 262 318 218 190 203 204 208 207 206 217 226 215 214 214 202 193 188 175 159 154 152 147 134 121 121 120 95 103 122 99 50 33 15 5 0 346 345 14 350 312
125 164 306 251 202 171 135 267 232 243 265 228 213 217 221 224 209 219 216 217 211 214 208 205 187 178 173 167 154 152 150 150 154 142 122 118 95 71 57 38 17 1 357 357 352 353 352 327 339
81 55 121 214 178 206 146 266 250 203 179 229 225 226 220 225 220 224 223 224 209 209 203 191 182 174 163 163 157 160 162 165 161 146 132 102 87 77 79 72 31 6 343 0 0 360 345 339 348
9 226 205 297 213 162 182 258 254 191 202 238 231 225 224 229 232 232 220 214 207 205 193 184 176 170 166 167 169 166 165 167 152 133 120 102 83 80 102 112 65 356 356 2 346 20 348 307 313
202 218 253 256 13 201 243 263 264 233 245 247 244 240 234 227 226 221 219 211 206 199 192 180 172 168 166 155 146 143 155 147 130 124 121 109 92 75 70 49 5 329 304 305 331 339 19 0 333
140 173 198 219 23 282 250 269 276 266 230 249 243 238 241 238 249 217 215 199 192 189 180 180 174 178 161 158 156 158 174 141 162 182 171 157 134 116 135 158 182 332 323 330 346 17 347 289 347
131 180 251 283 139 256 330 287 267 267 243 224 237 240 239 232 217 214 203 187 188 185 188 182 184 174 178 163 128 131 156 173 155 185 187 181 159 130 157 95 283 267 240 188 135 203 249 252 249
202 195 220 235 334 76 322 284 312 294 274 275 253 248 250 236 227 216 200 200 185 189 188 187 182 178 178 155 130 111 96 98 170 187 210 213 183 163 151 162 200 229 222 244 224 217 215 248 215
242 300 73 85 68 253 349 286 266 292 307 289 278 226 235 232 231 217 193 194 201 211 181 189 183 175 174 164 172 174 180 178 188 173 166 154 181 186 163 162 204 214 208 217 226 196 226 212 242
194 115 105 88 86 357 13 105 276 3 302 282 283 295 254 221 203 197 177 201 195 185 195 192 179 173 168 181 188 187 188 183 147 150 161 174 191 205 208 209 209 223 228 239 241 223 219 220 242
151 93 67 68 115 217 204 171 274 255 215 260 265 336 315 256 228 202 193 169 186 181 182 182 182 186 179 185 191 194 198 188 179 186 204 206 209 211 221 212 207 218 222 228 228 234 226 228 230
111 94 325 331 358 227 127 156 242 275 244 236 272 275 8 231 207 207 197 195 201 193 194 187 189 195 189 186 189 196 202 193 198 198 207 205 213 221 222 209 206 210 218 223 219 229 233 226 224
189 173 171 223 220 265 17 226 244 236 275 253 260 288 270 232 217 207 202 202 198 196 193 194 192 197 187 188 195 193 191 192 196 203 207 223 221 223 209 210 210 209 213 220 219 234 236 230 230
192 195 219 39 92 17 224 287 286 274 280 277 293 257 268 265 240 220 209 201 197 194 198 196 194 198 190 191 189 189 190 189 197 209 212 225 226 226 213 205 201 204 209 214 217 234 242 227 226
176 167 84 22 277 263 259 259 232 258 272 298 311 292 298 291 275 244 228 217 211 200 191 186 190 192 189 183 183 191 192 193 197 200 209 219 221 213 200 198 200 196 206 209 208 224 226 214 215
151 220 74 148 165 222 292 249 209 229 301 320 345 354 349 325 297 260 237 217 209 199 191 195 193 181 176 178 175 177 192 198 196 207 211 218 205 200 199 194 190 197 201 207 216 231 230 222 214
212 207 163 185 226 229 166 261 352 76 22 11 357 343 342 336 331 304 249 224 214 199 199 197 185 192 180 170 166 185 183 191 203 214 214 204 206 197 187 175 180 189 196 204 213 225 226 225 222